Location: Barrio Las Umbrías
(40.4173°N, 4.8685°W)
Time: 12:48:12
(UTC+00:00)

NOSS 3-1 (C) - Pass Details

Date: 17 August 2022
Orbit: 689 x 1519 km, 63.4° (Epoch: 11 September)

Event Time Altitude Azimuth Distance (km) Brightness Sun altitude
Rises 20:15:33 0° 224° (SW) 3,089 6.4 -11.5°
Reaches altitude 10° 20:17:48 10° 229° (SW) 2,218 5.7 -11.9°
Maximum altitude 20:22:44 59° 309° (NW) 918 3.8 -12.7°
Drops below altitude 10° 20:28:34 10° 29° (NNE) 2,610 5.8 -13.7°
Sets 20:31:25 0° 33° (NNE) 3,687 6.5 -14.1°
